Location: Exeidioux
(45.6312°N, 1.6819°E)
Time: 19:52:18
(UTC+00:00)

Cosmos 1271 Rocket - Pass Details

Date: 03 March 2021
Orbit: 498 x 544 km, 81.2° (Epoch: 13 April)

Event Time Altitude Azimuth Distance (km) Brightness Sun altitude
Rises 18:29:25 0° 344° (NNW) 2,600 6.5 -8.9°
Reaches altitude 10° 18:31:35 10° 339° (NNW) 1,712 5.6 -9.3°
Maximum altitude 18:35:12 48° 264° (W) 660 3.8 -9.9°
Drops below altitude 10° 18:38:49 10° 189° (S) 1,708 5.4 -10.5°
Sets 18:40:59 0° 184° (S) 2,593 6.3 -10.9°
